Wind_Speed
15 15 15 14 16 15 13 13 13 13 12 12 12 11 10 9 9 9 8 8 8 7 6 5 5 5 6 6 6 6 6 7 7 7 7 7 8 8 8 8 8 8 7 8 8 8 8 8 7
15 15 15 15 16 13 13 14 14 13 13 12 12 11 10 10 9 9 9 8 8 7 7 6 6 6 7 6 6 6 6 7 7 6 7 7 8 8 8 9 9 8 7 7 8 8 8 8 7
16 15 15 16 15 14 13 13 14 14 13 12 12 11 11 10 10 10 9 9 9 8 7 7 6 7 7 7 7 7 7 7 7 6 6 6 7 7 9 9 9 8 7 7 7 7 8 7 7
16 16 16 15 14 14 14 14 14 14 13 13 12 11 11 10 9 9 9 9 9 8 7 7 6 7 7 7 7 7 8 8 8 7 7 7 7 8 9 9 8 7 7 7 7 7 7 7 6
17 17 16 14 13 14 14 14 14 13 13 13 13 12 11 10 9 9 9 9 8 8 7 7 7 7 7 8 8 8 8 8 8 8 8 7 8 8 8 8 8 7 7 7 7 7 7 7 5
17 17 16 14 13 13 14 13 13 13 13 13 13 13 12 10 9 9 9 9 8 8 8 7 7 7 8 8 9 9 8 8 8 8 8 8 8 8 8 7 7 6 6 6 6 6 7 7 6
18 17 16 15 14 14 14 14 13 13 14 13 13 13 12 11 11 10 10 9 8 8 8 8 7 7 7 8 9 8 8 8 8 8 8 8 8 7 7 7 6 6 6 6 7 6 6 6 5
17 17 16 16 15 15 15 14 14 14 14 13 12 13 12 12 12 11 11 9 8 9 9 9 8 8 8 8 9 8 8 8 8 8 8 7 7 7 6 6 5 5 4 5 6 7 6 7 5
18 17 15 16 16 15 16 15 14 14 13 13 12 13 12 12 12 11 10 9 9 10 10 9 8 8 8 8 8 8 8 8 8 8 7 8 7 6 5 5 4 4 4 5 6 8 7 7 6
17 15 15 15 16 16 16 16 16 15 14 13 13 12 13 12 12 11 11 10 10 10 10 9 8 8 8 8 8 8 8 8 7 7 7 7 7 6 5 5 4 4 5 6 7 7 7 7 6
15 14 14 15 16 16 16 16 16 15 15 14 13 12 13 13 12 11 11 11 10 10 10 9 9 8 8 8 8 8 8 7 7 6 6 6 6 6 5 5 5 5 5 6 6 5 5 6 6
13 13 14 14 15 16 16 16 16 16 15 15 14 13 13 12 12 12 11 11 11 10 9 9 8 8 8 8 8 8 8 8 7 7 7 6 6 5 4 4 4 4 4 6 6 5 5 5 5
12 12 13 13 15 15 15 15 15 15 15 15 15 14 13 13 12 12 12 11 11 10 9 8 8 8 8 8 8 8 7 7 7 7 7 6 5 5 5 4 4 4 4 5 5 5 4 4 4
11 11 12 13 14 15 15 15 15 15 15 14 14 14 14 13 13 13 12 12 11 11 10 9 8 8 7 7 7 7 7 7 7 7 6 6 5 5 5 5 5 5 5 5 5 5 4 3 3
11 11 11 12 13 14 15 15 15 14 14 14 14 14 14 13 13 13 12 12 12 11 11 10 9 9 8 7 7 7 7 7 7 7 6 6 6 6 5 5 6 6 5 5 4 3 3 2 2
11 11 10 10 12 12 13 13 13 13 13 13 13 13 13 13 12 12 12 12 11 11 11 10 9 9 8 7 7 7 7 7 7 7 6 6 7 7 6 6 6 6 5 4 4 3 2 1 2
9 9 8 9 10 11 12 12 12 12 12 12 12 12 12 13 12 12 11 11 11 11 11 10 9 9 8 8 8 8 8 7 7 7 7 7 7 6 6 6 6 5 5 4 3 2 1 0 1
7 8 7 8 9 10 10 10 10 11 11 11 10 11 11 11 12 11 11 11 11 11 11 11 10 9 9 9 8 8 8 8 8 7 7 7 7 7 7 6 5 5 4 4 3 2 2 2 1
8 7 6 6 7 8 9 9 9 9 9 9 10 9 10 10 11 11 11 10 10 10 10 10 10 10 10 10 9 9 8 8 8 8 7 7 6 6 6 6 5 4 4 3 3 3 3 2 2
7 6 5 5 5 6 7 7 7 7 8 8 8 8 9 9 9 10 10 10 10 10 10 10 10 10 10 9 9 8 9 9 9 8 7 7 6 6 5 5 4 4 3 2 2 1 1 2 2
6 6 5 3 4 4 5 6 6 5 6 7 7 7 7 8 8 9 9 9 9 8 9 9 9 9 9 9 8 8 8 9 8 8 7 6 6 5 5 5 4 4 3 2 2 2 3 3 3
7 6 4 2 2 2 3 3 4 4 4 5 6 6 6 6 7 7 7 7 7 7 7 8 8 8 8 8 7 7 7 7 7 7 6 5 5 5 5 5 5 4 4 3 3 3 4 4 4
9 6 4 3 1 1 1 2 2 2 2 3 4 5 5 5 6 6 6 6 6 6 6 7 7 7 7 7 6 6 6 6 6 6 6 5 5 5 5 5 5 5 5 5 5 5 5 5 5
9 7 5 3 3 3 2 0 1 1 1 1 2 3 3 4 4 5 5 5 6 6 6 6 6 6 6 6 5 5 5 4 5 5 5 5 6 6 6 6 6 6 6 6 6 7 7 7 6
11 8 5 5 5 5 4 3 3 2 1 1 2 2 2 2 3 4 4 4 5 5 5 6 6 6 5 4 5 5 5 5 4 5 5 5 5 6 7 7 7 8 8 7 8 8 9 8 8
12 10 8 7 6 6 6 5 4 4 3 2 2 3 2 2 2 2 4 4 5 5 5 5 5 5 5 5 5 5 6 6 6 6 6 6 6 7 7 8 9 9 9 9 10 10 10 10 9
15 13 11 9 8 6 7 6 5 5 4 4 4 3 3 3 3 3 3 4 4 5 5 5 5 5 5 6 5 6 6 7 7 7 8 8 8 9 9 9 10 11 10 11 11 11 11 10 10
17 15 13 11 10 8 8 7 6 6 6 6 6 6 5 5 5 5 5 5 5 6 6 6 6 6 6 7 7 7 8 8 8 9 9 10 10 10 10 11 11 12 12 12 13 13 12 11 11
19 18 15 14 12 10 10 10 9 8 8 8 8 8 7 7 7 7 7 7 7 7 7 8 8 8 8 8 9 9 10 10 11 11 11 11 11 12 12 13 13 14 14 14 14 13 13 12 12
21 19 18 16 16 14 12 12 11 10 9 9 9 9 9 9 9 9 9 8 9 9 9 9 9 9 10 11 11 11 11 12 12 12 12 13 13 14 15 15 15 15 15 15 15 14 14 13 14
Wind_Direction
76 78 81 83 80 83 88 90 94 95 100 103 105 108 110 112 112 115 114 112 111 110 111 113 107 108 107 113 121 122 125 133 136 137 139 142 144 149 153 156 154 151 152 154 159 162 164 161 161
78 79 82 82 83 84 88 92 91 92 95 101 102 101 104 105 106 108 109 109 110 106 105 107 105 110 108 110 121 125 124 129 132 135 137 142 150 153 157 160 157 155 152 151 152 159 159 164 170
79 79 81 82 84 85 87 90 90 88 90 93 97 98 100 103 104 105 105 106 106 104 105 108 107 109 110 112 119 125 121 126 129 132 138 145 151 155 154 152 153 153 152 149 148 150 159 165 173
79 78 78 80 84 86 85 86 88 86 88 91 93 93 98 99 102 102 103 105 105 105 107 104 104 105 106 110 112 117 119 127 130 127 129 134 137 147 155 156 156 155 152 152 154 156 159 164 168
80 79 77 78 82 84 83 82 83 85 86 87 87 90 92 91 96 98 101 104 106 106 104 103 102 103 101 103 106 111 119 119 122 123 121 124 130 138 148 155 159 160 161 162 164 164 168 169 165
81 81 79 79 81 83 83 82 81 82 84 85 85 85 84 86 90 95 100 99 103 104 100 100 99 98 96 97 104 108 112 115 114 116 119 119 121 130 141 148 157 156 161 164 164 163 169 170 171
82 83 81 81 81 81 81 83 82 81 81 81 83 81 81 83 88 92 94 94 98 99 98 98 98 98 96 98 104 108 107 111 113 113 114 114 118 123 134 140 147 155 153 156 155 158 170 177 170
81 81 79 79 80 79 80 80 80 78 76 79 82 81 78 79 87 89 89 90 94 98 99 97 97 95 94 99 105 103 101 103 108 113 116 115 117 120 128 133 140 153 155 155 162 171 175 175 171
80 81 79 79 78 77 76 75 75 76 76 77 80 82 80 79 85 88 88 88 92 96 96 98 97 94 93 98 102 101 96 97 103 111 117 117 117 116 120 125 128 144 160 159 156 164 167 171 166
82 83 80 79 77 76 74 72 72 72 72 75 78 82 82 79 85 89 89 91 94 95 95 97 96 94 97 99 100 96 95 94 99 106 112 117 117 114 109 105 110 123 142 150 152 158 161 167 168
85 85 83 79 76 75 73 71 69 69 69 71 74 78 79 79 82 86 85 90 97 96 95 94 95 93 96 98 101 98 91 90 96 101 107 109 112 112 109 106 105 119 134 139 147 159 166 174 172
86 85 83 79 75 74 71 70 68 68 67 69 73 75 76 76 80 83 84 87 92 96 95 96 94 92 95 98 99 96 91 89 92 95 105 106 107 110 110 111 106 110 119 124 143 157 169 174 177
86 83 81 80 77 75 72 70 68 68 68 69 70 70 72 76 79 80 80 81 84 85 92 95 101 97 97 95 95 93 89 89 88 87 92 98 104 107 110 122 121 121 116 113 117 128 153 169 172
90 84 79 78 78 77 73 71 70 68 67 68 70 69 72 75 78 80 78 78 81 80 84 92 95 96 98 98 95 93 89 90 88 84 83 87 95 102 105 113 114 115 109 118 114 106 126 134 156
96 88 81 78 79 78 75 70 67 66 66 67 70 70 70 72 76 78 78 77 79 79 81 84 90 93 96 97 100 94 89 87 85 82 81 86 89 96 100 109 108 110 106 101 110 110 118 124 153
101 90 80 78 79 78 74 69 67 65 66 65 66 67 68 71 74 77 79 77 76 76 77 80 83 89 90 94 95 91 87 81 81 82 86 93 94 90 91 102 97 92 91 94 106 114 105 105 163
102 100 93 81 78 76 71 68 66 64 64 64 64 66 68 71 73 75 77 77 75 73 74 76 76 79 81 88 93 92 89 88 89 87 89 96 94 92 89 91 87 84 81 84 95 82 66 83 154
122 115 102 86 77 73 69 65 64 64 62 61 62 64 67 69 70 70 72 73 73 72 72 73 74 74 74 78 86 90 90 92 92 89 89 93 89 84 85 83 85 82 76 70 72 59 36 19 28
137 127 117 101 84 73 69 64 60 59 59 59 60 63 65 66 67 67 68 70 70 70 67 67 71 75 75 77 82 83 84 82 81 76 79 83 81 78 77 73 74 72 64 60 56 46 35 30 17
154 138 132 119 95 77 71 62 54 52 51 53 56 61 63 62 62 63 64 66 70 70 67 65 67 71 71 73 78 83 81 75 72 73 74 76 72 66 63 57 54 56 53 50 37 21 11 5 346
171 160 154 142 108 81 70 49 41 44 43 46 49 54 58 58 59 61 63 64 65 65 64 63 66 66 66 66 69 75 75 71 68 67 64 64 59 54 47 38 32 34 32 18 359 339 337 336 320
195 188 174 161 104 54 78 47 23 38 46 47 47 47 51 51 51 53 53 57 59 58 58 60 63 63 63 64 66 67 68 64 60 57 52 48 42 36 32 22 12 7 3 352 337 329 330 326 321
201 200 206 213 204 4 17 55 356 7 34 42 41 41 43 42 40 39 43 48 49 47 47 52 56 61 62 61 58 57 56 55 49 43 37 29 21 16 10 5 1 355 349 339 327 311 311 313 312
208 214 225 249 260 275 272 234 307 305 339 7 15 23 31 37 35 36 39 40 39 38 38 39 44 50 53 50 46 40 37 37 33 24 17 13 7 4 358 352 347 347 342 336 329 323 315 308 302
214 218 242 268 266 266 270 261 253 255 251 295 333 346 4 16 26 30 29 29 28 25 24 25 27 28 32 29 24 19 16 7 358 359 358 353 350 350 351 344 335 333 335 331 326 322 321 310 299
219 220 223 232 245 265 278 272 266 252 250 269 301 319 333 335 341 5 12 11 12 9 6 8 12 13 9 1 360 355 353 352 347 336 333 330 327 327 331 331 329 328 329 329 328 321 314 308 298
223 223 227 234 240 249 264 275 273 255 258 270 285 298 300 299 303 318 337 347 354 353 351 350 352 353 351 349 345 339 335 334 332 329 321 317 316 317 317 318 321 317 319 321 318 316 310 303 297
225 230 229 230 235 247 264 271 272 270 269 274 280 287 291 284 287 290 301 315 324 332 335 330 327 325 332 333 328 324 323 319 319 318 314 313 313 312 313 315 315 314 314 314 312 311 311 304 300
229 229 230 233 234 240 257 263 266 272 271 269 270 277 285 287 286 286 287 296 303 311 318 319 319 321 319 317 317 315 315 316 315 313 310 308 307 306 306 308 309 309 307 307 306 306 306 302 301
232 233 235 238 243 242 248 261 263 266 270 270 270 272 275 282 282 280 281 285 290 298 306 312 313 311 313 311 309 308 311 312 312 310 305 301 301 303 303 304 305 305 303 303 304 303 301 298 297
Height
5882 5882 5882 5882 5883 5883 5882 5882 5881 5880 5880 5880 5879 5879 5879 5880 5881 5883 5881 5879 5879 5879 5879 5879 5878 5877 5877 5877 5877 5876 5876 5877 5877 5877 5877 5877 5878 5878 5879 5880 5882 5883 5883 5884 5884 5885 5886 5887 5888
5885 5884 5885 5885 5885 5885 5884 5883 5882 5882 5881 5881 5880 5880 5880 5880 5881 5880 5880 5880 5880 5880 5879 5879 5879 5878 5878 5877 5877 5877 5877 5877 5877 5877 5877 5877 5878 5878 5879 5880 5881 5883 5883 5884 5884 5885 5886 5887 5888
5887 5887 5888 5888 5887 5887 5886 5885 5884 5883 5882 5882 5882 5881 5881 5881 5881 5881 5881 5881 5881 5880 5880 5880 5880 5879 5879 5878 5878 5878 5877 5878 5878 5878 5878 5877 5877 5877 5878 5880 5882 5883 5883 5884 5884 5885 5886 5887 5888
5890 5890 5891 5891 5889 5889 5888 5887 5886 5885 5884 5884 5883 5883 5882 5882 5882 5882 5881 5881 5881 5881 5881 5881 5881 5880 5880 5879 5879 5879 5878 5878 5878 5878 5878 5877 5875 5876 5878 5880 5882 5883 5884 5884 5885 5886 5887 5888 5888
5892 5893 5894 5893 5892 5891 5890 5889 5888 5887 5886 5885 5885 5884 5884 5883 5883 5883 5882 5882 5882 5882 5882 5882 5882 5881 5881 5880 5880 5880 5879 5879 5878 5878 5878 5877 5877 5878 5879 5881 5882 5883 5884 5884 5885 5886 5887 5888 5889
5896 5896 5897 5896 5895 5893 5892 5891 5889 5889 5888 5887 5886 5886 5885 5885 5884 5884 5883 5883 5883 5883 5883 5883 5883 5883 5882 5881 5881 5881 5880 5880 5880 5879 5879 5879 5879 5879 5881 5882 5882 5883 5884 5884 5885 5886 5887 5888 5889
5900 5899 5899 5898 5897 5896 5895 5893 5892 5891 5890 5889 5888 5887 5887 5886 5885 5885 5885 5884 5884 5884 5884 5884 5884 5884 5883 5882 5882 5882 5881 5881 5881 5881 5880 5880 5880 5881 5882 5883 5883 5884 5884 5884 5885 5886 5887 5888 5889
5901 5903 5902 5901 5900 5899 5897 5896 5894 5893 5892 5891 5890 5889 5889 5888 5887 5887 5886 5886 5885 5885 5885 5885 5885 5885 5884 5883 5883 5883 5883 5882 5882 5882 5882 5882 5882 5882 5883 5883 5884 5884 5884 5885 5885 5886 5887 5888 5889
5904 5907 5905 5904 5902 5901 5899 5898 5897 5895 5894 5893 5892 5891 5890 5889 5889 5888 5888 5887 5887 5887 5887 5887 5886 5886 5885 5885 5884 5884 5884 5884 5883 5883 5883 5883 5883 5883 5884 5884 5884 5885 5885 5885 5885 5886 5886 5887 5888
5908 5908 5907 5906 5905 5903 5902 5900 5899 5898 5897 5896 5895 5893 5892 5891 5891 5890 5890 5889 5889 5888 5888 5888 5887 5887 5887 5886 5886 5885 5885 5885 5885 5884 5884 5884 5884 5884 5885 5885 5885 5885 5885 5885 5886 5886 5887 5887 5888
5910 5910 5909 5908 5906 5905 5904 5903 5901 5900 5899 5898 5897 5896 5895 5894 5893 5892 5891 5891 5890 5890 5890 5889 5889 5889 5888 5888 5887 5887 5887 5886 5886 5886 5885 5885 5885 5885 5886 5886 5886 5886 5886 5886 5887 5887 5888 5888 5889
5912 5912 5911 5910 5909 5908 5906 5905 5904 5903 5902 5901 5900 5898 5897 5896 5895 5894 5893 5893 5892 5892 5891 5891 5890 5890 5890 5889 5889 5889 5888 5888 5887 5887 5887 5887 5887 5886 5887 5887 5887 5887 5887 5887 5887 5888 5888 5888 5889
5914 5914 5913 5912 5911 5910 5909 5908 5907 5906 5904 5903 5902 5901 5900 5898 5897 5897 5896 5895 5894 5893 5893 5892 5892 5891 5891 5891 5891 5890 5890 5890 5889 5888 5888 5888 5888 5887 5887 5887 5887 5888 5888 5888 5888 5888 5889 5889 5890
5917 5916 5915 5915 5914 5913 5912 5911 5910 5909 5907 5906 5905 5904 5902 5901 5900 5899 5898 5897 5896 5895 5894 5894 5893 5893 5893 5892 5892 5892 5891 5891 5891 5890 5889 5889 5889 5889 5888 5888 5888 5889 5889 5889 5889 5889 5889 5889 5890
5919 5919 5919 5918 5917 5916 5915 5914 5913 5911 5910 5909 5908 5907 5905 5904 5903 5902 5901 5899 5898 5897 5896 5896 5895 5894 5894 5894 5893 5893 5893 5892 5892 5891 5890 5890 5890 5889 5889 5889 5890 5889 5890 5890 5890 5890 5890 5890 5890
5921 5922 5922 5921 5920 5919 5919 5918 5916 5914 5913 5912 5910 5909 5908 5907 5906 5904 5903 5902 5901 5900 5899 5898 5897 5896 5895 5895 5895 5894 5894 5894 5894 5893 5892 5891 5891 5891 5891 5890 5890 5890 5890 5891 5891 5891 5891 5890 5890
5924 5925 5924 5923 5922 5921 5921 5920 5918 5917 5915 5914 5913 5912 5911 5909 5908 5907 5906 5904 5903 5902 5901 5900 5899 5898 5897 5896 5896 5896 5895 5895 5895 5894 5893 5893 5892 5892 5892 5892 5892 5892 5891 5892 5891 5891 5891 5891 5890
5926 5926 5926 5925 5924 5923 5922 5921 5920 5919 5918 5917 5916 5914 5913 5912 5911 5909 5908 5907 5906 5905 5903 5902 5901 5900 5899 5897 5897 5897 5897 5897 5896 5896 5895 5894 5894 5894 5894 5893 5893 5893 5893 5893 5892 5892 5891 5891 5890
5926 5927 5927 5926 5925 5924 5924 5923 5923 5921 5920 5919 5918 5917 5916 5914 5913 5911 5910 5909 5908 5907 5906 5904 5903 5902 5901 5900 5899 5899 5899 5898 5898 5897 5896 5896 5896 5895 5895 5895 5894 5894 5894 5893 5893 5893 5892 5891 5890
5925 5927 5927 5927 5926 5926 5925 5925 5924 5923 5922 5921 5920 5919 5917 5916 5915 5914 5912 5911 5910 5909 5908 5907 5905 5904 5903 5902 5902 5901 5901 5900 5899 5899 5898 5898 5897 5897 5896 5896 5895 5895 5894 5894 5893 5893 5892 5891 5891
5925 5927 5928 5927 5927 5927 5927 5927 5926 5925 5924 5923 5922 5921 5919 5918 5917 5916 5915 5913 5912 5911 5910 5909 5907 5906 5905 5904 5903 5903 5903 5902 5901 5901 5900 5900 5899 5898 5897 5897 5896 5895 5895 5894 5893 5893 5892 5892 5891
5925 5926 5927 5927 5927 5928 5928 5930 5927 5925 5925 5924 5923 5922 5921 5920 5919 5918 5916 5915 5914 5912 5911 5910 5909 5908 5907 5906 5905 5905 5904 5903 5903 5902 5901 5901 5900 5899 5898 5897 5896 5895 5894 5894 5893 5892 5892 5891 5890
5924 5925 5926 5926 5927 5928 5928 5929 5929 5926 5925 5925 5924 5923 5922 5921 5920 5919 5918 5916 5915 5914 5912 5911 5910 5910 5909 5908 5907 5906 5905 5905 5904 5903 5902 5901 5900 5899 5898 5897 5896 5895 5894 5893 5892 5891 5890 5890 5889
5922 5924 5925 5926 5927 5929 5928 5929 5929 5927 5926 5925 5924 5923 5922 5922 5921 5920 5919 5917 5916 5915 5914 5912 5912 5911 5910 5909 5908 5907 5906 5905 5904 5903 5902 5901 5900 5899 5898 5896 5895 5894 5893 5892 5891 5890 5889 5888 5887
5921 5924 5926 5927 5928 5928 5927 5927 5928 5926 5925 5925 5924 5923 5923 5922 5921 5920 5920 5918 5917 5916 5914 5913 5912 5911 5910 5909 5908 5908 5907 5905 5904 5903 5902 5901 5899 5898 5897 5895 5894 5893 5892 5890 5889 5888 5887 5886 5885
5919 5922 5925 5927 5928 5928 5926 5926 5927 5925 5924 5924 5923 5923 5922 5922 5921 5920 5920 5919 5918 5916 5915 5914 5913 5912 5911 5909 5908 5907 5906 5905 5904 5902 5901 5900 5898 5897 5896 5894 5893 5891 5890 5888 5887 5886 5884 5883 5882
5916 5918 5921 5923 5924 5925 5925 5924 5924 5923 5923 5923 5923 5922 5922 5921 5921 5920 5919 5918 5918 5916 5915 5914 5913 5912 5910 5909 5908 5907 5905 5904 5903 5901 5900 5898 5897 5895 5894 5892 5891 5889 5887 5886 5884 5883 5881 5880 5879
5913 5915 5918 5920 5921 5923 5924 5923 5923 5922 5921 5921 5921 5921 5921 5921 5920 5920 5919 5918 5917 5916 5915 5913 5912 5911 5910 5908 5907 5906 5904 5903 5901 5900 5898 5896 5895 5893 5892 5890 5889 5887 5885 5884 5882 5880 5878 5877 5876
5910 5912 5914 5916 5917 5920 5922 5924 5921 5920 5920 5919 5919 5919 5919 5919 5918 5918 5917 5917 5916 5915 5914 5912 5911 5910 5909 5907 5906 5904 5903 5901 5900 5898 5896 5894 5893 5891 5889 5888 5886 5884 5882 5881 5879 5877 5876 5875 5874
5905 5907 5910 5913 5913 5915 5918 5921 5917 5917 5917 5917 5917 5917 5917 5917 5916 5916 5915 5915 5914 5913 5912 5911 5910 5908 5907 5905 5904 5902 5900 5899 5897 5895 5893 5892 5890 5888 5886 5884 5883 5881 5879 5878 5876 5874 5873 5872 5871